When you browse on this site, cookies collect data to enhance your experience and personalize the content and advertising you see.
Visit our Privacy Policy to learn more. By continuing to use the site, you agree to this use of cookies and data.
  • en France
  • Liste des pays
  • À 7 jours
  • Température de l'eau
  • Carte météo
  • Widgets météo
  • user-avatar
    Se connecter

    Météo par heure à Cacheu

    Ce jour, 29 Mai, Vendredi

    Heure Température Précipitation Vent Pression Humidité
    00:00 +25°C° 0 mm 2 m/s 758 mmHg 84%
    01:00 +25°C° 0 mm 2 m/s 757 mmHg 83%
    02:00 +25°C° 0 mm 3 m/s 757 mmHg 83%
    03:00 +25°C° 0 mm 2 m/s 757 mmHg 84%
    04:00 +24°C° 0 mm 2 m/s 757 mmHg 86%
    05:00 +24°C° 0 mm 1 m/s 757 mmHg 87%
    06:00 +26°C° 0 mm 1 m/s 757 mmHg 75%
    07:00 +29°C° 0 mm 1 m/s 758 mmHg 63%
    08:00 +29°C° 0 mm 0 m/s 758 mmHg 52%
    09:00 +34°C° 0 mm 1 m/s 758 mmHg 43%
    10:00 +39°C° 0 mm 1 m/s 758 mmHg 34%
    11:00 +42°C° 0 mm 2 m/s 757 mmHg 25%
    12:00 +43°C° 0 mm 3 m/s 757 mmHg 25%
    13:00 +42°C° 0 mm 4 m/s 756 mmHg 25%
    14:00 +42°C° 0 mm 4 m/s 755 mmHg 26%
    15:00 +40°C° 0 mm 5 m/s 755 mmHg 30%
    16:00 +37°C° 0 mm 5 m/s 755 mmHg 34%
    17:00 +35°C° 0 mm 6 m/s 755 mmHg 37%
    18:00 +33°C° 0 mm 5 m/s 755 mmHg 47%
    19:00 +30°C° 0 mm 4 m/s 756 mmHg 57%
    20:00 +28°C° 0 mm 4 m/s 757 mmHg 67%
    21:00 +27°C° 0 mm 3 m/s 757 mmHg 70%
    22:00 +27°C° 0 mm 3 m/s 757 mmHg 74%
    23:00 +26°C° 0 mm 3 m/s 757 mmHg 77%

    Demain, 30 Mai, Samedi

    Heure Température Précipitation Vent Pression Humidité
    00:00 +26°C° 0 mm 2 m/s 757 mmHg 79%
    01:00 +26°C° 0 mm 2 m/s 757 mmHg 81%
    02:00 +25°C° 0 mm 2 m/s 756 mmHg 84%
    03:00 +25°C° 0 mm 2 m/s 757 mmHg 86%
    04:00 +25°C° 0 mm 1 m/s 757 mmHg 87%
    05:00 +24°C° 0 mm 1 m/s 757 mmHg 89%
    06:00 +26°C° 0 mm 2 m/s 757 mmHg 77%
    07:00 +28°C° 0 mm 2 m/s 758 mmHg 64%
    08:00 +30°C° 0 mm 2 m/s 758 mmHg 52%
    09:00 +34°C° 0 mm 2 m/s 758 mmHg 42%
    10:00 +37°C° 0 mm 2 m/s 758 mmHg 33%
    11:00 +40°C° 0 mm 3 m/s 758 mmHg 23%
    12:00 +40°C° 0 mm 3 m/s 757 mmHg 23%
    13:00 +41°C° 0 mm 4 m/s 756 mmHg 24%
    14:00 +42°C° 0 mm 5 m/s 756 mmHg 24%
    15:00 +39°C° 0 mm 5 m/s 755 mmHg 31%
    16:00 +36°C° 0 mm 5 m/s 755 mmHg 38%
    17:00 +33°C° 0 mm 6 m/s 755 mmHg 45%
    18:00 +30°C° 0 mm 5 m/s 756 mmHg 56%
    19:00 +28°C° 0 mm 4 m/s 757 mmHg 66%
    20:00 +26°C° 0 mm 3 m/s 758 mmHg 77%
    21:00 +26°C° 0 mm 2 m/s 758 mmHg 81%
    22:00 +25°C° 0 mm 2 m/s 758 mmHg 85%
    23:00 +25°C° 0 mm 1 m/s 759 mmHg 89%

    Après-demain, 31 Mai, Dimanche

    Heure Température Précipitation Vent Pression Humidité
    00:00 +25°C° 0 mm 1 m/s 758 mmHg 89%
    01:00 +25°C° 0 mm 2 m/s 757 mmHg 89%
    02:00 +25°C° 0 mm 3 m/s 757 mmHg 88%
    03:00 +24°C° 0 mm 2 m/s 757 mmHg 88%
    04:00 +24°C° 0 mm 2 m/s 757 mmHg 88%
    05:00 +24°C° 0 mm 2 m/s 757 mmHg 87%
    06:00 +25°C° 0 mm 2 m/s 758 mmHg 77%
    07:00 +27°C° 0 mm 2 m/s 758 mmHg 67%
    08:00 +29°C° 0 mm 2 m/s 759 mmHg 57%
    09:00 +30°C° 0 mm 2 m/s 759 mmHg 50%
    10:00 +32°C° 0 mm 1 m/s 759 mmHg 42%
    11:00 +34°C° 0 mm 1 m/s 759 mmHg 35%
    12:00 +36°C° 0 mm 2 m/s 759 mmHg 32%
    13:00 +37°C° 0 mm 3 m/s 758 mmHg 30%
    14:00 +40°C° 0 mm 4 m/s 758 mmHg 27%
    15:00 +37°C° 0 mm 5 m/s 758 mmHg 32%
    16:00 +35°C° 0 mm 5 m/s 757 mmHg 36%
    17:00 +34°C° 0 mm 5 m/s 757 mmHg 41%
    18:00 +32°C° 0 mm 4 m/s 758 mmHg 51%
    19:00 +29°C° 0 mm 4 m/s 758 mmHg 60%
    20:00 +26°C° 0 mm 3 m/s 759 mmHg 70%
    21:00 +26°C° 0 mm 3 m/s 759 mmHg 70%
    22:00 +26°C° 0 mm 2 m/s 759 mmHg 70%
    23:00 +26°C° 0 mm 2 m/s 759 mmHg 70%

    1 Juin, Lundi

    Heure Température Précipitation Vent Pression Humidité
    00:00 +26°C° 0 mm 2 m/s 759 mmHg 71%
    01:00 +26°C° 0 mm 2 m/s 759 mmHg 72%
    02:00 +26°C° 0 mm 2 m/s 758 mmHg 72%
    03:00 +25°C° 0 mm 2 m/s 758 mmHg 75%
    04:00 +25°C° 0 mm 1 m/s 759 mmHg 78%
    05:00 +24°C° 0 mm 1 m/s 759 mmHg 80%
    06:00 +26°C° 0 mm 1 m/s 759 mmHg 69%
    07:00 +28°C° 0 mm 1 m/s 760 mmHg 58%
    08:00 +30°C° 0 mm 1 m/s 760 mmHg 47%
    09:00 +34°C° 0 mm 1 m/s 760 mmHg 39%
    10:00 +37°C° 0 mm 1 m/s 760 mmHg 30%
    11:00 +42°C° 0 mm 1 m/s 760 mmHg 22%
    12:00 +41°C° 0 mm 2 m/s 759 mmHg 23%
    13:00 +42°C° 0 mm 3 m/s 759 mmHg 23%
    14:00 +42°C° 0 mm 4 m/s 758 mmHg 24%
    15:00 +40°C° 0 mm 5 m/s 758 mmHg 30%
    16:00 +36°C° 0 mm 5 m/s 758 mmHg 35%
    17:00 +34°C° 0 mm 6 m/s 758 mmHg 41%
    18:00 +32°C° 0 mm 5 m/s 758 mmHg 46%
    19:00 +30°C° 0 mm 4 m/s 759 mmHg 50%
    20:00 +28°C° 0 mm 3 m/s 760 mmHg 55%
    21:00 +27°C° 0 mm 3 m/s 760 mmHg 58%
    22:00 +27°C° 0 mm 3 m/s 760 mmHg 61%
    23:00 +26°C° 0 mm 4 m/s 759 mmHg 65%

    2 Juin, Mardi

    Heure Température Précipitation Vent Pression Humidité
    00:00 +26°C° 0 mm 3 m/s 759 mmHg 68%
    01:00 +25°C° 0 mm 3 m/s 759 mmHg 71%
    02:00 +24°C° 0 mm 2 m/s 758 mmHg 73%
    03:00 +24°C° 0 mm 2 m/s 758 mmHg 75%
    04:00 +24°C° 0 mm 2 m/s 759 mmHg 76%
    05:00 +24°C° 0 mm 2 m/s 759 mmHg 78%
    06:00 +26°C° 0 mm 2 m/s 759 mmHg 66%
    07:00 +28°C° 0 mm 3 m/s 759 mmHg 55%
    08:00 +30°C° 0 mm 3 m/s 760 mmHg 44%
    09:00 +34°C° 0 mm 3 m/s 759 mmHg 34%
    10:00 +37°C° 0 mm 3 m/s 759 mmHg 25%
    11:00 +40°C° 0 mm 3 m/s 759 mmHg 16%
    12:00 +42°C° 0 mm 3 m/s 758 mmHg 16%
    13:00 +43°C° 0 mm 4 m/s 758 mmHg 16%
    14:00 +44°C° 0 mm 4 m/s 757 mmHg 16%
    15:00 +41°C° 0 mm 5 m/s 757 mmHg 24%
    16:00 +37°C° 0 mm 5 m/s 757 mmHg 32%
    17:00 +34°C° 0 mm 6 m/s 756 mmHg 40%
    18:00 +32°C° 0 mm 5 m/s 757 mmHg 48%
    19:00 +29°C° 0 mm 5 m/s 757 mmHg 55%
    20:00 +27°C° 0 mm 4 m/s 757 mmHg 63%
    21:00 +26°C° 0 mm 4 m/s 758 mmHg 65%
    22:00 +26°C° 0 mm 4 m/s 758 mmHg 67%
    23:00 +25°C° 0 mm 3 m/s 758 mmHg 69%

    3 Juin, Mercredi

    Heure Température Précipitation Vent Pression Humidité
    00:00 +25°C° 0 mm 3 m/s 758 mmHg 70%
    01:00 +25°C° 0 mm 3 m/s 757 mmHg 71%
    02:00 +25°C° 0 mm 3 m/s 757 mmHg 71%
    03:00 +24°C° 0 mm 3 m/s 757 mmHg 74%
    04:00 +24°C° 0 mm 2 m/s 757 mmHg 77%
    05:00 +23°C° 0 mm 2 m/s 757 mmHg 80%
    06:00 +25°C° 0 mm 2 m/s 758 mmHg 69%
    07:00 +27°C° 0 mm 2 m/s 758 mmHg 59%
    08:00 +28°C° 0 mm 2 m/s 759 mmHg 49%
    09:00 +31°C° 0 mm 2 m/s 759 mmHg 40%
    10:00 +35°C° 0 mm 2 m/s 758 mmHg 31%
    11:00 +37°C° 0 mm 2 m/s 758 mmHg 23%
    12:00 +40°C° 0 mm 2 m/s 757 mmHg 19%
    13:00 +43°C° 0 mm 2 m/s 756 mmHg 16%
    14:00 +47°C° 0 mm 3 m/s 756 mmHg 12%
    15:00 +43°C° 0 mm 4 m/s 755 mmHg 21%
    16:00 +40°C° 0 mm 5 m/s 755 mmHg 29%
    17:00 +35°C° 0 mm 6 m/s 755 mmHg 37%
    18:00 +32°C° 0 mm 5 m/s 756 mmHg 47%
    19:00 +29°C° 0 mm 5 m/s 756 mmHg 57%
    20:00 +27°C° 0 mm 4 m/s 757 mmHg 67%
    21:00 +26°C° 0 mm 4 m/s 757 mmHg 71%
    22:00 +26°C° 0 mm 3 m/s 757 mmHg 74%
    23:00 +25°C° 0 mm 3 m/s 758 mmHg 78%
    Voir plus